When you browse on this site, cookies collect data to enhance your experience and personalize the content and advertising you see.
Visit our Privacy Policy to learn more. By continuing to use the site, you agree to this use of cookies and data.
  • In France
  • List of Countries
  • For 7 days
  • Water Temperature
  • Satellite Maps
  • Weather Map
  • Weather Widgets
  • user-avatar
    Login

    Hourly Weather Tarija

    Today, 23 March, Saturday

    Time Temperature Precipitation Wind Pressure Humidity
    00:00 +15°C° 0 mm 1 mps 598 mmHg 92%
    01:00 +15°C° 0 mm 1 mps 598 mmHg 92%
    02:00 +14°C° 0 mm 1 mps 598 mmHg 92%
    03:00 +14°C° 0 mm 1 mps 598 mmHg 92%
    04:00 +13°C° 0 mm 1 mps 598 mmHg 92%
    05:00 +12°C° 0 mm 0 mps 597 mmHg 92%
    06:00 +14°C° 0 mm 1 mps 598 mmHg 87%
    07:00 +16°C° 0 mm 1 mps 599 mmHg 81%
    08:00 +18°C° 0 mm 1 mps 600 mmHg 74%
    09:00 +20°C° 0 mm 1 mps 600 mmHg 69%
    10:00 +20°C° 0 mm 2 mps 600 mmHg 63%
    11:00 +22°C° 0 mm 3 mps 601 mmHg 57%
    12:00 +22°C° 0.1 mm 3 mps 600 mmHg 57%
    13:00 +24°C° 0.1 mm 3 mps 600 mmHg 56%
    14:00 +25°C° 0.1 mm 4 mps 599 mmHg 56%
    15:00 +23°C° 0 mm 4 mps 599 mmHg 60%
    16:00 +22°C° 0 mm 4 mps 598 mmHg 64%
    17:00 +21°C° 0 mm 3 mps 597 mmHg 68%
    18:00 +20°C° 0 mm 3 mps 597 mmHg 73%
    19:00 +19°C° 0 mm 3 mps 597 mmHg 79%
    20:00 +18°C° 0 mm 2 mps 597 mmHg 84%
    21:00 +17°C° 0 mm 2 mps 598 mmHg 85%
    22:00 +17°C° 0 mm 2 mps 598 mmHg 86%
    23:00 +16°C° 0 mm 1 mps 598 mmHg 87%

    Tomorrow, 24 March, Sunday

    Time Temperature Precipitation Wind Pressure Humidity
    00:00 +16°C° 0 mm 1 mps 598 mmHg 87%
    01:00 +16°C° 0 mm 2 mps 598 mmHg 87%
    02:00 +16°C° 0 mm 2 mps 598 mmHg 87%
    03:00 +15°C° 0 mm 1 mps 597 mmHg 88%
    04:00 +15°C° 0 mm 1 mps 597 mmHg 88%
    05:00 +13°C° 0 mm 0 mps 597 mmHg 89%
    06:00 +15°C° 0 mm 1 mps 597 mmHg 85%
    07:00 +16°C° 0 mm 1 mps 598 mmHg 80%
    08:00 +19°C° 0 mm 1 mps 599 mmHg 76%
    09:00 +19°C° 0 mm 2 mps 600 mmHg 71%
    10:00 +20°C° 0 mm 2 mps 600 mmHg 67%
    11:00 +21°C° 0 mm 3 mps 601 mmHg 62%
    12:00 +21°C° 0.1 mm 3 mps 600 mmHg 66%
    13:00 +20°C° 0.1 mm 3 mps 599 mmHg 69%
    14:00 +20°C° 0.1 mm 3 mps 598 mmHg 73%
    15:00 +19°C° 0.2 mm 3 mps 598 mmHg 77%
    16:00 +19°C° 0.2 mm 3 mps 598 mmHg 80%
    17:00 +18°C° 0.2 mm 2 mps 597 mmHg 84%
    18:00 +17°C° 0.3 mm 2 mps 598 mmHg 86%
    19:00 +17°C° 0.3 mm 2 mps 598 mmHg 88%
    20:00 +17°C° 0.3 mm 2 mps 599 mmHg 89%
    21:00 +17°C° 0.3 mm 2 mps 599 mmHg 89%
    22:00 +16°C° 0.3 mm 2 mps 599 mmHg 89%
    23:00 +16°C° 0.3 mm 1 mps 600 mmHg 89%

    Day after tomorrow, 25 March, Monday

    Time Temperature Precipitation Wind Pressure Humidity
    00:00 +16°C° 0.2 mm 1 mps 599 mmHg 89%
    01:00 +16°C° 0.2 mm 1 mps 599 mmHg 89%
    02:00 +16°C° 0.2 mm 1 mps 599 mmHg 89%
    03:00 +15°C° 0.3 mm 0 mps 599 mmHg 90%
    04:00 +14°C° 0.3 mm 0 mps 598 mmHg 90%
    05:00 +14°C° 0.3 mm 0 mps 598 mmHg 91%
    06:00 +14°C° 0.1 mm 0 mps 599 mmHg 89%
    07:00 +16°C° 0.1 mm 1 mps 599 mmHg 86%
    08:00 +18°C° 0.1 mm 1 mps 600 mmHg 84%
    09:00 +19°C° 0.1 mm 1 mps 600 mmHg 79%
    10:00 +19°C° 0.1 mm 2 mps 600 mmHg 74%
    11:00 +20°C° 0.1 mm 2 mps 600 mmHg 70%
    12:00 +21°C° 0.4 mm 2 mps 600 mmHg 67%
    13:00 +22°C° 0.4 mm 3 mps 599 mmHg 64%
    14:00 +22°C° 0.4 mm 3 mps 599 mmHg 60%
    15:00 +21°C° 0.4 mm 3 mps 598 mmHg 67%
    16:00 +20°C° 0.4 mm 3 mps 597 mmHg 74%
    17:00 +19°C° 0.4 mm 4 mps 597 mmHg 81%
    18:00 +18°C° 0.7 mm 3 mps 597 mmHg 84%
    19:00 +18°C° 0.7 mm 3 mps 597 mmHg 87%
    20:00 +17°C° 0.7 mm 2 mps 598 mmHg 91%
    21:00 +17°C° 0.7 mm 2 mps 598 mmHg 91%
    22:00 +17°C° 0.7 mm 2 mps 599 mmHg 92%
    23:00 +16°C° 0.7 mm 1 mps 599 mmHg 92%

    26 March, Tuesday

    Time Temperature Precipitation Wind Pressure Humidity
    00:00 +16°C° 0.3 mm 1 mps 599 mmHg 92%
    01:00 +16°C° 0.3 mm 1 mps 599 mmHg 92%
    02:00 +16°C° 0.3 mm 1 mps 599 mmHg 92%
    03:00 +16°C° 0.1 mm 1 mps 598 mmHg 92%
    04:00 +16°C° 0.1 mm 1 mps 598 mmHg 92%
    05:00 +16°C° 0.1 mm 1 mps 598 mmHg 93%
    06:00 +16°C° 0.2 mm 1 mps 599 mmHg 92%
    07:00 +16°C° 0.2 mm 1 mps 599 mmHg 91%
    08:00 +16°C° 0.2 mm 1 mps 600 mmHg 91%
    09:00 +16°C° 0.4 mm 2 mps 600 mmHg 89%
    10:00 +17°C° 0.4 mm 2 mps 600 mmHg 88%
    11:00 +17°C° 0.4 mm 3 mps 601 mmHg 86%
    12:00 +17°C° 0.3 mm 3 mps 600 mmHg 89%
    13:00 +16°C° 0.3 mm 3 mps 599 mmHg 92%
    14:00 +16°C° 0.3 mm 3 mps 598 mmHg 95%
    15:00 +15°C° 0.6 mm 2 mps 598 mmHg 95%
    16:00 +15°C° 0.6 mm 2 mps 598 mmHg 96%
    17:00 +15°C° 0.6 mm 2 mps 598 mmHg 96%
    18:00 +15°C° 0.5 mm 2 mps 598 mmHg 96%
    19:00 +15°C° 0.5 mm 2 mps 599 mmHg 95%
    20:00 +14°C° 0.5 mm 1 mps 599 mmHg 95%
    21:00 +14°C° 0.3 mm 1 mps 599 mmHg 95%
    22:00 +14°C° 0.3 mm 1 mps 600 mmHg 95%
    23:00 +14°C° 0.3 mm 1 mps 600 mmHg 95%

    27 March, Wednesday

    Time Temperature Precipitation Wind Pressure Humidity
    00:00 +14°C° 0.5 mm 2 mps 600 mmHg 94%
    01:00 +14°C° 0.5 mm 2 mps 600 mmHg 94%
    02:00 +14°C° 0.5 mm 2 mps 599 mmHg 94%
    03:00 +14°C° 0.9 mm 2 mps 599 mmHg 95%
    04:00 +14°C° 0.9 mm 2 mps 599 mmHg 96%
    05:00 +13°C° 0.9 mm 2 mps 599 mmHg 97%
    06:00 +13°C° 0.8 mm 2 mps 599 mmHg 96%
    07:00 +13°C° 0.8 mm 2 mps 600 mmHg 96%
    08:00 +13°C° 0.8 mm 1 mps 600 mmHg 96%
    09:00 +14°C° 0.2 mm 2 mps 601 mmHg 93%
    10:00 +15°C° 0.2 mm 2 mps 601 mmHg 89%
    11:00 +15°C° 0.2 mm 2 mps 601 mmHg 86%
    12:00 +16°C° 0.1 mm 2 mps 601 mmHg 82%
    13:00 +17°C° 0.1 mm 3 mps 600 mmHg 78%
    14:00 +18°C° 0.1 mm 3 mps 600 mmHg 74%
    15:00 +18°C° 0.1 mm 3 mps 600 mmHg 77%
    16:00 +17°C° 0.1 mm 3 mps 599 mmHg 81%
    17:00 +16°C° 0.1 mm 3 mps 599 mmHg 84%
    18:00 +16°C° 0 mm 2 mps 599 mmHg 87%
    19:00 +15°C° 0 mm 2 mps 599 mmHg 90%
    20:00 +15°C° 0 mm 2 mps 599 mmHg 93%
    21:00 +15°C° 0 mm 2 mps 600 mmHg 93%
    22:00 +15°C° 0 mm 1 mps 600 mmHg 92%
    23:00 +15°C° 0 mm 1 mps 601 mmHg 92%

    28 March, Thursday

    Time Temperature Precipitation Wind Pressure Humidity
    00:00 +15°C° 0.1 mm 1 mps 600 mmHg 91%
    01:00 +15°C° 0.1 mm 1 mps 600 mmHg 91%
    02:00 +15°C° 0.1 mm 2 mps 600 mmHg 90%
    03:00 +15°C° 0 mm 1 mps 600 mmHg 90%
    04:00 +14°C° 0 mm 1 mps 600 mmHg 90%
    05:00 +14°C° 0 mm 1 mps 599 mmHg 90%
    06:00 +15°C° 0 mm 1 mps 600 mmHg 86%
    07:00 +16°C° 0 mm 2 mps 601 mmHg 83%
    08:00 +17°C° 0 mm 2 mps 601 mmHg 79%
    09:00 +18°C° 0 mm 2 mps 601 mmHg 74%
    10:00 +19°C° 0 mm 2 mps 602 mmHg 69%
    11:00 +21°C° 0 mm 3 mps 602 mmHg 64%
    12:00 +20°C° 0 mm 3 mps 601 mmHg 67%
    13:00 +20°C° 0 mm 3 mps 600 mmHg 69%
    14:00 +20°C° 0 mm 3 mps 599 mmHg 72%
    15:00 +19°C° 0.1 mm 3 mps 599 mmHg 75%
    16:00 +19°C° 0.1 mm 3 mps 599 mmHg 77%
    17:00 +18°C° 0.1 mm 2 mps 598 mmHg 80%
    18:00 +18°C° 0.1 mm 2 mps 599 mmHg 83%
    19:00 +17°C° 0.1 mm 2 mps 599 mmHg 86%
    20:00 +18°C° 0.1 mm 1 mps 600 mmHg 90%
    21:00 +16°C° 0.1 mm 1 mps 600 mmHg 91%
    22:00 +16°C° 0.1 mm 1 mps 601 mmHg 91%
    23:00 +16°C° 0.1 mm 1 mps 601 mmHg 92%
    Show more